Regional Weather Roundup
Issued by NWS Wakefield, VA

Home | Current Version | Previous Version | Graphics & Text | Print | Product List | Glossary On
Versions: 1 2 3 4 5 6 7 8 9 10 11 12 13 14 15 16 17 18 19 20 21 22 23 24 25 26 27 28 29 30 31 32 33 34 35 36 37 38 39 40 41 42 43 44 45 46 47 48 49 50
000
ASUS41 KAKQ 212310
RWRAKQ

REGIONAL WEATHER ROUNDUP
NATIONAL WEATHER SERVICE WAKEFIELD VA
700 PM EDT SUN SEP 21 2014

Note: "fair" indicates few or no clouds below 12,000 feet with no
significant weather and/or obstructions to visibility. * = Denotes
station may not report precipitation (e.g., rain,snow,etc.),
thunder or fog.

VAZ042-051-052>054-056-220000-
NORTHERN VIRGINIA

CITY           SKY/WX    TMP DP  RH WIND       PRES   REMARKS
WASH NATIONAL  MOCLDY    80  64  58 S9        29.66R
DULLES         MOCLDY    79  63  57 S3        29.66R
FORT BELVOIR   MOCLDY    73  68  84 SE1       29.67R
QUANTICO       PTCLDY    78  66  66 SW6       29.66S
FREDERICKSBRG* PTCLDY    83  64  51 S7        29.66R
STAFFORD*      MOCLDY    79  64  59 S3        29.70S
WARRENTON      HVY RAIN  76  74  94 N12       29.67R
CULPEPER*      MOCLDY    84  63  48 NW6       29.67R
MANASSAS*      MOCLDY    77  68  73 VRB6      29.67R
LEESBURG*      PTCLDY    75  72  88 CALM      29.67S
WINCHESTER     PTCLDY    81  55  41 W12       29.68R
FRONT ROYAL*   PTCLDY    81  54  39 W6G17     29.67R
LURAY*         PTCLDY    82  54  36 W10G21    29.69R
$$

VAZ048-049-060>072-079>083-220000-
CENTRAL AND SOUTH CENTRAL VIRGINIA...AND NORTH CENTRAL NORTH CAROLINA

CITY           SKY/WX    TMP DP  RH WIND       PRES   REMARKS
RICHMOND       PTCLDY    82  64  54 S12       29.70S
CHESTERFIELD*  CLEAR     81  61  50 S8        29.73R
PETERSBURG*    CLEAR     78  65  65 SW6       29.74R
HANOVER        CLEAR     83  62  49 SW8       29.70S
TAPPAHANNOCK*  CLEAR     77  60  54 CALM      29.70R
CHARLOTTSVILLE PTCLDY    81  63  54 S10       29.69R
ORANGE*        MOCLDY    81  63  54 S8        29.69R
LOUISA*        PTCLDY    81  64  57 SW3       29.69R
FARMVILLE*     CLEAR     81  63  54 SW5       29.72R
CREWE*         CLEAR     78  66  66 S5        29.74R
FORT PICKETT*  CLEAR     77  67  71 S7        29.74S
LUNENBURG*     PTCLDY    77  69  76 SW7       29.75S
SOUTH HILL*    CLEAR     79  70  73 SW5       29.82R
LAWRENCEVILLE* CLEAR     76  69  78 SW3       29.76R
ROANOKE RAPIDS CLEAR     77  68  73 S5        29.77R
RALEIGH        PTCLDY    80  64  58 W7        29.80S
$$

VAZ088>098-220000-
SOUTHEAST VIRGINIA

CITY           SKY/WX    TMP DP  RH WIND       PRES   REMARKS
NORFOLK        CLEAR     78  61  55 SW7       29.73S
VIRGINIA BEACH PTCLDY    77  60  55 SW7       29.73R
NORFOLK NAVAL  PTCLDY    79  62  56 SW7       29.74S
WEST POINT*    CLEAR     80  62  55 S6        29.72R
NEWPORT NEWS   CLEAR     80  63  55 SW9       29.72S
LANGLEY AFB    CLEAR     78  63  59 SW7       29.72S
FORT EUSTIS    CLEAR     78  61  54 S7        29.71S
WILLIAMSBURG*  CLEAR     81  66  61 SW3       29.73R
HR EXEC AP*    CLEAR     73  63  68 SW5       29.76S
FRANKLIN*      CLEAR     79  64  61 SW5       29.75S
WAKEFIELD      CLEAR     79  66  64 SW3       29.73S
$$

VAZ020-022-025-037-045-220000-
WEST CENTRAL AND SOUTHWEST VIRGINIA

CITY           SKY/WX    TMP DP  RH WIND       PRES   REMARKS
STAUNTON*      PTCLDY    80  54  40 W6        29.74R
HOT SPRINGS VA MOCLDY    62  49  61 W14G21    29.90R
LYNCHBURG      MOCLDY    76  65  68 SW5       29.78R
DANVILLE       PTCLDY    79  64  60 W8        29.80R
SOUTH BOSTON*  NOT AVBL
MARTINSVILLE   PTCLDY    75  67  75 SW3       29.84R
ROANOKE        PTCLDY    73  63  70 W13       29.82R
BLACKSBURG     PTCLDY    70  68  94 W3        29.89R
DUBLIN*        PTCLDY    70  65  85 W8        29.89R
MARION*        PTCLDY    69  65  88 SW13      29.94R
HILLSVILLE*    PTCLDY    68  62  79 W7        29.92R
RICHLANDS*     MOCLDY    71  65  82 SW6       29.93R
WISE*          CLOUDY    70  64  83 SW8       29.95S
ABINGDON*      CLOUDY    71  68  90 W10       29.93R
$$

MDZ021>025-VAZ099-100-220000-
SOUTHERN MARYLAND AND THE DELMARVA PENINSULA

CITY           SKY/WX    TMP DP  RH WIND       PRES   REMARKS
PATUXENT RIVER CLEAR     76  60  57 S6        29.67S
BAY BRIDGE APT   N/A     75  59  57 S3        29.66R
LEONARDTOWN    CLEAR     77  59  53 S3        29.69S
DOVER          CLEAR     73  67  82 SE2       29.64R
GEORGETOWN     CLEAR     75  65  70 S8        29.67S
EASTON         PTCLDY    77  59  53 CALM      29.70R
CAMBRIDGE      CLEAR     77  63  61 CALM      29.67R
SALISBURY      CLEAR     75  67  76 S5        29.68R
OCEAN CITY     CLEAR     72  69  90 CALM      29.67R
WALLOPS ISLAND CLEAR     73  68  84 W8        29.70R
ACCOMACK*      CLEAR     70  64  83 SW5       29.71R
$$

NCZ012>017-030>032-220000-
EASTERN NORTH CAROLINA

CITY           SKY/WX    TMP DP  RH WIND       PRES   REMARKS
ELIZABETH CITY CLEAR     73  67  81 SW6       29.76R
AHOSKIE*       CLEAR     73  67  81 CALM      29.77S
EDENTON*       CLEAR     77  65  66 SW6       29.78R
CURRITUCK*     CLEAR     76  64  65 CALM      29.76R
KILL DEVIL HLS CLEAR     75  65  71 SW6       29.76R
MANTEO         CLEAR     75  66  74 W6        29.77S
CAPE HATTERAS  CLEAR     72  66  81 W8        29.80R
TARBORO*       CLEAR     79  66  65 S5        29.80R
GOLDSBORO      CLEAR     80  70  72 CALM      29.80R
WASHINGTON     CLEAR     77  65  66 SW6       29.81R
GREENVILLE     CLEAR     77  68  73 SW5       29.83R
NEW BERN       CLEAR     76  67  73 SW5       29.83R
WILMINGTON     CLEAR     79  63  57 SW6       29.85R
$$

VAZ048-220000-
ELSEWHERE

CITY           SKY/WX    TMP DP  RH WIND       PRES   REMARKS
HARRISBURG PA  MOCLDY    71  68  90 CALM      29.63S
BALTIMORE      MOCLDY    76  66  71 SE5       29.65S
ANNAPOLIS      CLEAR     74  63  68 S3        29.66R
ANDREWS AFB    PTCLDY    78  62  58 S7        29.67R
WILMINGTON DE  CLEAR     74  66  76 S8        29.66R
PHILADELPHIA   MOCLDY    75  65  70 SW6       29.64S
WILDWOOD NJ*   PTCLDY    72  64  78 SW5       29.67R
ATLANTIC CITY  MOCLDY    73  69  87 CALM      29.64R
HENDERSON NC   CLEAR     77  64  65 SW5       29.78S
GREENSBORO     MOCLDY    79  64  60 W14G23    29.83R
ROCKY MOUNT    CLEAR     77  67  71 S6        29.79S
FAYETTEVILLE   CLEAR     83  63  50 SW8       29.83R
CHARLOTTE      PTCLDY    80  63  55 SW5       29.86S
$$

VAZ100-220000-
MARINE

STATION/POSITION TIME  TEMP    WIND        PRES    WAVE   SWELL
                       AIR SEA DIR/SP/G            HT/PER HT/PER
                 (UTC) (F)     (DEG/KT/KT) (MB)    (FT/S) (FT/S)
44066 TX TWR #4  2300   71 71   10/  8/ 10 1002.0F   4/ 8   5/ 8
CAPE MAY NJ      2300   72 76  230/  5/  5 1003.7S
LEWES DE         2300   74 72     CALM     1004.1R
15NM E FENWICK I 2300   72 72              1004.2R   4/ 8
OCEAN-CITY-INLET 2300   73 72  110/  3/  4 1004.2S
WACHAPREAGUE VA  2300   74 75  260/  2/  5 1005.7R
THOMAS POINT MD  2300   75 74  190/  9/ 10 1005.5R
GOOSES REEF MD   2300   76     190/ 10/ 12 1004.9F
COVE POINT MD    2300   75     190/  9/ 10 1004.5F
SOLOMONS ISLAND  2300      76                N/A
BISHOPS HEAD MD  2300   75 75  200/  5/  6 1004.7R
PINEY POINT MD   2300          190/  7/  8   N/A
POTOMAC MD       2300   77     180/  6/  8 1004.5S
CAMBRIDGE MD     2300   78 74  200/  2/  4 1004.3S
LEWISETTA VA     2300   78 76  200/  6/  7 1004.8R
RAPPAHANNOCK LGT 2300          190/  9/  9 1006.5R
STINGRAY PT      2300   76     180/  8/ 10   N/A
YORK RVR RNG VA  2300   79     230/ 10/ 11 1005.8R
YORKTOWN VA      2300   78 76  210/  4/  5 1005.9R
JAMESTOWN VA     2300   78     230/  6/ 10   N/A
DOMINION TERM VA 2300   78     230/  7/  8 1006.7S
KIPTOPEKE VA     2300      79  220/  8/ 10   N/A
CHES BAY BRIDGE  2300   79 75  210/ 10/ 10 1006.1S
CAPE HENRY VA    2300   78     220/  6/  7 1005.5R
CHESAPEAKE LGHT  2200   75     280/  7/  8 1007.0R
WILLOUBY STN VA  2300   78     260/  9/ 10 1005.4S
S CRANEY ISL VA  2300          190/  5/  6 1006.5S
CAPE HENRY BUOY  2200      75                N/A     4/ 8
1ST LANDING BUOY 2300   78     250/  8/ 10 1006.3S
CAPE CHARLES BUO 2300      74                N/A     4/ 9   3/ 9
OFFSHORE WE BUOY 2300      74                N/A     5/ 8   5/ 8
64NM E OF VA BCH 2300   74 77  270/ 12/ 16 1006.4R   6/ 9   5/ 9
DUCK PIER NC     2300   76 75  240/ 13/ 15 1006.9R
44100 DUCK FRF   2200      74                N/A     5/ 8   2/11
44056 DUCK FRF   2200                        N/A     5/ 8
OREGON INLET NC  2300   77 75  250/  7/  9 1008.1R
DIAMOND SHLS NC  2300   79     260/ 16/ 19 1008.9R   6/ 9   5/ 9
CAPE LOOKOUT NC  2200   78     240/  5/  7 1009.8R
$$



USA.gov is the U.S. government's official web portal to all federal, state and local government web resources and services.